Location: *
(58.7167°N, 26.1833°E)
Time: 10:06:06
(UTC+00:00)

Cosmos 2219 - Pass Details

Date: 25 August 2019
Orbit: 833 x 861 km, 71.1° (Epoch: 17 September)

Event Time Altitude Azimuth Distance (km) Brightness Sun altitude
Exits shadow 22:51:45 31° 150° (SSE) 1,475 4.0 -20.3°
Maximum altitude 22:53:33 39° 112° (ESE) 1,278 4.0 -20.3°
Drops below altitude 10° 22:58:51 10° 45° (NE) 2,511 6.4 -20.2°
Sets 23:01:27 0° 38° (NE) 3,451 7.5 -20.1°
